Regional Weather Roundup
Issued by NWS

Home | Current Version | Previous Version | Text Only | Print | Product List | Glossary On
Versions: 1 2 3 4 5 6 7 8 9 10 11 12 13 14 15 16 17 18 19 20 21 22 23 24 25 26 27 28 29 30 31 32 33 34 35 36 37 38 39 40 41 42 43 44 45 46 47 48 49 50
000
ASUS44 KEWX 242111
RWRTX
SOUTH TEXAS REGIONAL WEATHER ROUNDUP
NATIONAL WEATHER SERVICE AUSTIN/SAN ANTONIO TX
400 PM CDT SUN JUL 24 2016

NOTE: "FAIR" INDICATED FEW OR NO CLOUDS BELOW 12,000 FEET WITH NO
SIGNIFICANT WEATHER AND/OR OBSTRUCTIONS TO VISIBILITY.

* - THESE STATIONS ARE NOT NWS OR FAA STATIONS...AND ARE NOT SUBJECT
    TO NWS AND FAA QUALITY CONTROL.

TXZ171-172-183>190-242200-
TEXAS HILL COUNTRY AND EDWARDS PLATEAU

CITY           SKY/WX    TMP DP  RH WIND       PRES   REMARKS
JUNCTION       MOSUNNY  100  62  28 SE7       29.92F HX 101
*LLANO         SUNNY    100  64  30 SE9G20    29.93F HX 103
BURNET         MOSUNNY   98  64  32 S6        29.94F HX 100
*HORSESHOE BAY SUNNY     99  63  30 E6        29.91F HX 101
*KERRVILLE     MOSUNNY   97  65  35 SE7G17    29.95F HX 100
*FREDERICKSBRG MOSUNNY   96  58  28 E5        29.94F HX  95
*ROCKSPRINGS   MOSUNNY   99  63  30 S6        29.98F HX 100
*BOERNE STAGE  SUNNY     95  64  36 SE9       29.95F HX  97
*CASTROVILLE   SUNNY     98  62  30 SE7G16    29.91F HX  99
HONDO          SUNNY     98  66  34 SE8       29.91F HX 101
*UVALDE        SUNNY     98  67  37 E10G18    29.89F HX 102
DEL RIO        MOSUNNY  102  64  28 SE12G17   29.84F HX 105
LAUGHLIN AFB   NOT AVBL
CARRIZO SPRGS  MOSUNNY  100  64  30 SE6       29.83F HX 103
*EAGLE PASS    PTCLDY   102  64  29 E8G20     29.84F HX 105
$$

TXZ173-191>194-202-209-217>225-228-242200-
CENTRAL AND SOUTH CENTRAL TEXAS

CITY           SKY/WX    TMP DP  RH WIND       PRES   REMARKS
GEORGETOWN     MOSUNNY   99  66  34 E7        29.91F HX 102
AUSTIN/BERGSTM PTSUNNY   97  69  40 E14G20    29.89F HX 103
AUSTIN/MABRY   MOSUNNY   99  70  38 VRB7      29.91F HX 106
*AUSTIN/EXEC     N/A     97  68  38 SE7       29.91F HX 101
*LAGO VISTA    SUNNY     99  64  31 SE9       29.94F HX 101
SAN MARCOS     MOSUNNY   97  70  41 SE8G16    29.92F HX 103
NEW BRAUNFELS  MOSUNNY  101  68  34 SE10      29.89F HX 106
RANDOLPH AFB   MOSUNNY   98  66  34 SE8       29.90F HX 102
PT SAN ANTONIO MOSUNNY   99  67  34 VRB5      29.88F HX 103
SAN ANTONIO    MOSUNNY   98  68  37 VRB7      29.90F HX 103
STINSON FIELD  MOSUNNY  101  66  31 SE9       29.87F HX 105
*PLEASANTON    MOSUNNY   98  63  31 SE9       29.87F HX  99
*LA GRANGE       N/A    N/A N/A N/A S7        29.87F
*GIDDINGS      SUNNY     96  67  38 SE5       29.93F HX 100
*GONZALES      SUNNY    100  71  39 CALM      29.88F HX 109
$$

TXZ163>164-176>182-195>201-210>213-226-227-235-242200-
SOUTHEAST TEXAS

CITY           SKY/WX    TMP DP  RH WIND       PRES   REMARKS
COLLEGE STN    MOSUNNY   97  69  40 S7        29.89F HX 103
*BRYAN         SUNNY    100  71  39 SW7       29.91F HX 108
*CALDWELL      SUNNY     97  64  34 CALM      29.93F HX  99
*CROCKETT      SUNNY     99  68  36 CALM      29.93F HX 104
*BRENHAM       PTSUNNY   99  70  38 S7        29.90F HX 106
HUNTSVILLE     SUNNY     98  65  33 NE5       29.90F HX 101
CONROE         MOSUNNY   99  69  37 S5        29.90F HX 105
HOUSTON BUSH   MOSUNNY   97  69  40 SW8       29.89F HX 103
HOUSTON HOBBY  PTSUNNY   95  74  50 SE8       29.90F HX 105
*HOUSTON SW AP PTSUNNY   96  74  50 CALM      29.91S HX 107
PEARLAND       PTSUNNY   96  75  50 SE10G20   29.92F HX 108
HOUSTON HOOKS  PTSUNNY   97  71  42 CALM      29.90F HX 104
ELLINGTON FLD  PTSUNNY   95  73  49 S9        29.92F HX 105
SUGAR LAND     PTSUNNY   95  69  42 VRB7      29.89F HX 100
*HOUSTON EXEC  PTSUNNY   95  72  46 CALM      29.90F HX 103
*CLEVELAND MUN NOT AVBL
*WHARTON       SUNNY     96  72  45 SE10G16   29.90F HX 105
*COLUMBUS      FAIR      98  70  40 CALM      29.88F HX 105
*EAGLE LAKE    MOCLDY    96  71  44 E3        29.88F HX 104
$$

TXZ214>216-236>238-242200-
THE UPPER TEXAS COAST

CITY           SKY/WX    TMP DP  RH WIND       PRES   REMARKS
*ORANGE        CLOUDY    92  72  52 NW3       29.92F HX 100
PORT ARTHUR    CLOUDY    95  76  53 S8        29.91F HX 108
GALVESTON      MOSUNNY   91  78  65 S12       29.94S HX 106
ANGLETON       PTSUNNY   96  75  50 S13       29.91F HX 108
*BAY CITY      PTSUNNY   95  76  53 S10       29.91F HX 107
PALACIOS       SUNNY     91  76  61 S13G21    29.91F HX 103
$$

TXZ229>234-239>247-242200-
TEXAS COASTAL BEND AND RIO GRANDE PLAINS

CITY           SKY/WX    TMP DP  RH WIND       PRES   REMARKS
VICTORIA       MOSUNNY   97  68  38 SE15      29.89F HX 102
*BEEVILLE      PTSUNNY   95  72  46 SE14G20   29.88F HX 103
ROCKPORT       SUNNY     92  75  57 SE13G21   29.90F HX 103
*PORT ARANSAS  SUNNY     90  77  65 SE12G18   29.91F HX 103
*PORT LAVACA   MOSUNNY   94  76  55 SE8G20    29.90F HX 106
*INGLESIDE     SUNNY     94  74  51 SE14G22   29.90F HX 104
CORPUS CHRISTI MOSUNNY   93  73  52 SE16G23   29.89F HX 102
CORPUS NAS     SUNNY     92  79  65 SE16      29.91F HX 108
*ROBSTOWN      MOSUNNY   97  72  44 E13G22    29.88S HX 105
ALICE          MOSUNNY  100  71  39 SE17      29.85F HX 108
KINGSVILLE NAS MOSUNNY   97  77  52 E20       29.86F HX 112
COTULLA        MOSUNNY  101  64  29 SE13      29.84F HX 104
*FAITH RANCH   MOSUNNY  104  64  27 E7G20     29.83F HX 107
LAREDO         MOSUNNY  103  67  31 SE14G20   29.82F HX 108
$$

TXZ248>255-242200-
DEEP SOUTH TEXAS

CITY           SKY/WX    TMP DP  RH WIND       PRES   REMARKS
BROWNSVILLE    SUNNY     94  75  54 SE16G26   29.88F HX 105
PORT ISABEL    MOSUNNY   94  76  55 SE21      29.87F HX 106
*SOUTH PADRE     N/A     91  79  66 S14G21    29.90F HX 107
HARLINGEN        N/A    N/A N/A N/A MISG      29.85F
*HEBBRONVILLE  MOSUNNY  101  61  26 S6G16     29.86F HX 102
MCALLEN        MOSUNNY  102  68  33 SE22      29.85F HX 108
*WESLACO       MOSUNNY   93  -1   3 SE15G22   29.85S
FALFURRIAS     MOSUNNY  100  71  38 SE15G21   29.83F HX 108
EDINBURG       PTSUNNY  103  64  27 SE13G20   29.84F HX 106
*ZAPATA        MOSUNNY  103  60  24 E6G21     29.81F HX 103
$$

TXZ213>215-236>238-242>244-246-247-251-254-255-242200-
CMAN STATIONS

STATION/POSITION TIME  TEMP    WIND        PRES    WAVE
                       AIR SEA DIR/SP/G            HT/PER
                 (UTC) (F)     (DEG/KT/KT) (MB)    (FT/S)
SABINE PASS      2000   89 90  130/  5/  7 1015.2
SEA RIM ST PARK  2100   88     170/  9/ 11 1013.8
NORTH JETTY/GLS  2000   88 91                N/A
EAGLE POINT      2000   87 85  150/  8/  9 1013.8
MORGANS POINT    2000   90 89  150/  8/ 12 1013.4
MISSION/ARANSAS  2000   87                 1014.0
PORT ARANSAS     2100   85 89  130/ 13/ 14 1013.0
MALAQUITE BEACH  2000   85 89  120/ 15/ 16 1013.4
BAFFIN BAY       2000   87 91  130/ 16/ 19 1012.8
PORT ISABEL      2000   88 88  160/ 10/ 17 1012.7
$$

GMZ080-GMZ150>470-242200-
OFFSHORE BUOY REPORTS

STATION/POSITION TIME  TEMP    WIND        PRES    WAVE
                       AIR SEA DIR/SP/G            HT/PER
                 (UTC) (F)     (DEG/KT/KT) (MB)    (FT/S)
20 E GALVESTON   2050   87 92  200/  6/  8 1013.7    2/ 4
90 E PT ARANSAS  2050   86 87  180/  8/  8 1013.3    2/ 5
35 NE PT MANSFLD 2050   85 85  150/ 10/ 12 1012.5    2/ 5
200 E PT ISABEL  2050   86 87  210/  8/ 10 1013.8    2/ 4
$$



USA.gov is the U.S. government's official web portal to all federal, state and local government web resources and services.